Location: Bishop�s Knoyle
(51.0728°N, 2.1714°W)
Time: 08:58:55
(UTC+00:00)

BEESAT 2 - Pass Details

Date: 01 December 2021
Orbit: 498 x 513 km, 64.9° (Epoch: 20 January)

Event Time Altitude Azimuth Distance (km) Brightness Sun altitude
Exits shadow 05:11:16 18° 13° (NNE) 1,319 ? -24.0°
Maximum altitude 05:11:53 19° 26° (NNE) 1,293 ? -23.9°
Drops below altitude 10° 05:14:42 10° 72° (ENE) 1,750 ? -23.5°
Sets 05:17:24 0° 91° (E) 2,632 ? -23.0°
